Flag for U.S.A. Weather past 2 weeks in Newport News, Virginia, U.S.A.

Now
26 °F

Clear.


Feels Like: 16 °F
Forecast: 20 / 30 °F
Wind: 10 mph from North

Location: Newport News / Williamsburg International Airport

Current Time: Mar 6, 2015 at 3:36:01 AM

Latest Report: Mar 6, 2015 at 2:54 AM


Visibility: 10 mi

Pressure: 30.42 "Hg

Humidity: 66%

Dew point: 16 °F

Location of Newport NewsLocation

Historic Weather in Newport News — Graph

°F

Newport News temperature yesterday

Maximum temperature yesterday: 53 °F (at 2:01 AM)
Minimum temperature yesterday: 30 °F (at 11:54 PM)
Average temperature yesterday: 40 °F

Past Weeks' High & Low Weather Summary

 TemperatureHumidityPressure
High67 °F (Mar 4, 3:54 PM)93% (Feb 22, 7:54 AM)30.84 "Hg (Feb 22, 7:54 AM)
Low6 °F (Feb 21, 12:54 AM)26% (Feb 19, 2:54 PM)29.76 "Hg (Feb 26, 3:54 AM)
Average33 °F67%30.24 "Hg
* Reported Feb 19 1:54 AM — Mar 6 1:54 AM, Newport News, Weather by CustomWeather, © 2015

Note: Actual official high and low records may vary slightly from our data, if they occured in-between our weather recording intervals... More about our weather records

Advertising

Newport News weather history for previous 24 hours

 ConditionsComfort  
Time TempWeatherWind HumidityBarometerVisibility
1:54 AM
Fri, Mar 6
28 °FMostly cloudy.16 mph58%30.41 "Hg10 mi
12:54 AM29 °FMostly cloudy.13 mph72%30.40 "Hg10 mi
11:54 PM
Thu, Mar 5
30 °FLight snow. Overcast.13 mph79%30.39 "Hg10 mi
10:54 PM31 °FOvercast.15 mph76%30.34 "Hg10 mi
9:54 PM31 °FOvercast.13 mph76%30.36 "Hg10 mi
8:54 PM32 °FLight snow. Overcast.16 mph79%30.31 "Hg10 mi
8:00 PM33 °FLight rain. Fog.14 mph85%30.26 "Hg2 mi
6:54 PM35 °FOvercast.12 mph78%30.23 "Hg10 mi
5:54 PM35 °FLight rain. Low clouds.10 mph85%30.17 "Hg10 mi
5:04 PM36 °FLight rain. Low clouds.13 mph82%30.12 "Hg4 mi
4:01 PM36 °FLight rain. Fog.9 mph85%30.12 "Hg4 mi
2:54 PM37 °FLight rain. Low clouds.12 mph82%30.11 "Hg2 mi
2:03 PM37 °FHeavy rain. Fog.14 mph86%30.12 "Hg1 mi
1:54 PM37 °FLight rain. Fog.9 mph86%30.10 "Hg2 mi
12:54 PM38 °FLight rain. Fog.9 mph86%30.08 "Hg4 mi
11:54 AM38 °FRain. Fog.12 mph86%30.10 "Hg2 mi
11:02 AM38 °FLight rain. Fog.12 mph86%30.08 "Hg6 mi
9:54 AM39 °FLight rain. Low clouds.10 mph82%30.09 "Hg1 mi
8:54 AM40 °FLight rain. Fog.13 mph86%30.04 "Hg2 mi
7:54 AM42 °FLight rain. Fog.12 mph85%30.04 "Hg2 mi
6:54 AM43 °FLight rain. Fog.13 mph86%29.98 "Hg2 mi
5:54 AM46 °FLight rain. Mostly cloudy.10 mph83%29.98 "Hg4 mi
4:54 AM48 °FLight rain. Low clouds.9 mph83%29.95 "Hg7 mi
3:54 AM49 °FLight rain. Low clouds.15 mph86%29.90 "Hg10 mi
Weather by CustomWeather, © 2015

See weather overviewHow to use our weather pages